Location: Newark
(36.0797°N, 3.9744°E)
Time: 13:14:53
(UTC+00:00)

Vanguard 2 Rocket - Pass Details

Date: 16 December 2019
Orbit: 554 x 3326 km, 32.9° (Epoch: 18 January)

Event Time Altitude Azimuth Distance (km) Brightness Sun altitude
Rises 18:38:38 0° 270° (W) 6,803 12.7 -24.9°
Reaches altitude 10° 18:43:43 10° 269° (W) 5,448 11.8 -26.0°
Maximum altitude 18:58:31 74° 188° (S) 1,813 8.2 -28.9°
Enters shadow 19:01:29 50° 119° (ESE) 1,908 8.1 -29.5°
Drops below altitude 10° 19:06:35 10° 105° (ESE) 3,139 - -30.5°
Sets 19:08:46 0° 103° (ESE) 3,846 - -31.0°
